�N����,����,�~����,�C��,���x,�C��,����,���ϕ���,�ő�u�ԕ���,�ő厞����,���˗�,�I�_���x,�n�����x,�ő啗���N��,DTYPE
"23/04/16","00:10",0.0,14.5,97.8,993.7,300.6,1.1,1.9,322.1,0.00,14.2,14.5,"00:04:04",1
"23/04/16","00:20",0.0,14.4,98.3,993.7,357.5,0.6,1.3,310.4,0.00,14.2,14.3,"00:16:10",1
"23/04/16","00:30",0.0,14.6,97.9,993.4,351.4,0.6,1.8,321.4,0.00,14.3,14.4,"00:24:14",1
"23/04/16","00:40",0.0,14.5,98.3,993.4,26.5,0.7,1.8,261.6,0.00,14.3,14.5,"00:33:04",1
"23/04/16","00:50",0.0,14.7,97.9,993.2,89.2,0.3,1.0,114.5,0.00,14.4,14.3,"00:43:44",1
"23/04/16","01:00",0.0,14.6,98.4,993.9,247.5,0.7,1.7,278.4,0.00,14.4,14.4,"00:52:30",1
"23/04/16","01:10",0.0,14.7,97.9,993.4,225.0,0.6,1.2,261.2,0.00,14.4,14.3,"01:00:10",1
"23/04/16","01:20",0.0,14.6,98.4,993.4,162.2,0.5,1.1,135.3,0.00,14.4,14.3,"01:13:16",1
"23/04/16","01:30",0.0,14.7,97.9,993.9,343.6,0.5,1.3,121.3,0.00,14.4,14.3,"01:20:32",1
"23/04/16","01:40",0.0,14.6,98.4,993.7,292.1,1.6,2.4,315.4,0.00,14.4,14.5,"01:38:06",1
"23/04/16","01:50",0.0,14.7,97.9,993.2,336.7,0.5,1.4,344.1,0.00,14.4,14.3,"01:40:28",1
"23/04/16","02:00",0.0,14.6,98.5,993.4,265.5,1.2,2.4,326.8,0.00,14.4,14.5,"01:54:38",1
"23/04/16","02:10",0.0,14.7,98.1,993.2,266.6,1.3,2.4,309.9,0.00,14.4,14.4,"02:07:42",1
"23/04/16","02:20",0.0,14.7,98.0,993.7,324.2,1.1,1.7,324.1,0.00,14.4,14.4,"02:13:48",1
"23/04/16","02:30",0.0,14.6,98.0,993.7,319.8,1.6,2.2,315.0,0.00,14.3,14.5,"02:23:14",1
"23/04/16","02:40",0.0,14.6,98.1,993.4,335.7,0.5,1.2,325.3,0.00,14.3,14.2,"02:39:36",1
"23/04/16","02:50",0.0,14.6,98.0,993.4,330.7,1.1,1.8,302.0,0.00,14.3,14.5,"02:48:00",1
"23/04/16","03:00",0.0,14.6,98.0,993.7,325.4,0.7,1.1,350.5,0.00,14.3,14.4,"02:52:48",1
"23/04/16","03:10",0.0,14.6,98.1,993.9,336.2,0.8,1.9,321.9,0.00,14.3,14.4,"03:01:12",1
"23/04/16","03:20",0.0,14.6,98.1,993.7,336.3,1.1,1.9,330.6,0.00,14.3,14.4,"03:15:46",1
"23/04/16","03:30",0.0,14.4,98.1,993.7,313.6,1.7,2.4,318.8,0.00,14.1,14.1,"03:26:06",1
"23/04/16","03:40",0.0,14.4,98.1,993.9,300.5,1.3,1.7,292.7,0.00,14.1,14.2,"03:30:40",1
"23/04/16","03:50",0.0,14.4,98.1,994.1,287.7,1.3,1.9,303.8,0.00,14.1,14.5,"03:48:28",1
"23/04/16","04:00",0.2,14.3,98.1,994.6,315.2,2.2,3.7,321.3,0.00,14.0,14.4,"03:54:52",1
"23/04/16","04:10",0.0,14.1,98.2,994.1,310.7,1.8,3.2,323.7,0.00,13.9,14.4,"04:06:30",1
"23/04/16","04:20",0.0,14.1,98.2,994.6,284.9,2.0,3.2,287.1,0.00,13.9,14.4,"04:14:08",1
"23/04/16","04:30",0.0,14.1,98.3,994.6,306.4,2.1,3.2,325.6,0.00,13.9,14.4,"04:26:08",1
"23/04/16","04:40",0.0,14.3,98.2,994.8,331.6,1.5,3.1,337.2,0.00,14.1,14.4,"04:32:56",1
"23/04/16","04:50",0.0,14.2,98.2,995.3,325.7,1.1,2.4,306.5,0.00,14.0,14.3,"04:44:56",1
"23/04/16","05:00",0.2,14.2,98.2,994.6,197.4,0.3,1.0,102.0,0.00,14.0,14.3,"04:52:08",1
"23/04/16","05:10",0.0,14.1,98.3,994.6,261.1,0.8,2.1,296.0,0.00,13.9,14.4,"05:04:40",1
"23/04/16","05:20",0.0,14.0,98.1,994.8,324.4,0.6,1.2,130.7,0.00,13.7,14.3,"05:17:20",1
"23/04/16","05:30",0.0,13.7,98.3,995.1,295.8,1.2,2.6,340.5,0.00,13.5,14.2,"05:26:16",1
"23/04/16","05:40",0.0,13.6,98.3,995.3,304.8,1.2,2.5,335.3,0.00,13.4,14.1,"05:39:20",1
"23/04/16","05:50",0.0,13.4,98.3,995.6,269.4,1.2,2.0,262.3,0.00,13.2,14.4,"05:43:20",1
"23/04/16","06:00",0.0,13.2,98.4,995.3,300.2,1.0,1.7,264.2,0.00,13.0,14.3,"05:54:32",1
"23/04/16","06:10",0.0,13.1,98.4,995.6,261.0,0.8,2.0,308.7,0.00,12.9,14.2,"06:08:52",1
"23/04/16","06:20",0.0,13.1,98.5,995.8,298.5,1.1,1.9,291.5,0.00,12.9,14.3,"06:19:12",1
"23/04/16","06:30",0.0,13.1,98.5,995.8,279.2,1.3,2.9,308.0,0.00,12.9,14.3,"06:25:36",1
"23/04/16","06:40",0.0,13.1,98.6,995.8,301.4,1.5,3.1,318.4,0.00,12.9,14.3,"06:32:34",1
"23/04/16","06:50",0.0,12.8,98.6,995.8,299.8,1.1,2.2,317.1,0.01,12.6,14.2,"06:43:52",1
"23/04/16","07:00",0.0,12.7,98.8,996.3,310.5,1.1,2.6,301.7,0.03,12.6,14.2,"06:55:20",1
"23/04/16","07:10",0.0,12.9,98.8,996.0,331.2,1.6,2.6,336.6,0.06,12.8,14.3,"07:02:08",1
"23/04/16","07:20",0.0,13.6,98.7,995.8,328.9,1.1,1.6,309.8,0.10,13.4,14.2,"07:10:56",1
"23/04/16","07:30",0.0,13.7,98.5,996.3,0.2,0.8,1.9,342.8,0.15,13.5,14.2,"07:26:00",1
"23/04/16","07:40",0.0,13.8,98.5,996.7,338.7,1.2,2.5,329.4,0.18,13.6,14.1,"07:38:32",1
"23/04/16","07:50",0.0,14.6,98.3,996.5,290.0,1.2,2.5,336.5,0.22,14.4,14.2,"07:41:52",1
"23/04/16","08:00",0.0,14.8,97.9,996.5,269.1,1.0,1.6,335.6,0.25,14.5,14.1,"07:59:52",1
"23/04/16","08:10",0.0,13.8,97.4,997.0,305.6,2.1,3.7,327.3,0.29,13.4,14.2,"08:07:20",1
"23/04/16","08:20",0.0,13.9,97.0,997.2,307.2,2.6,4.2,337.4,0.31,13.5,14.2,"08:10:16",1
"23/04/16","08:30",0.0,14.1,95.8,997.0,292.2,2.6,4.0,306.9,0.31,13.5,14.1,"08:21:12",1
"23/04/16","08:40",0.0,14.3,94.6,997.2,317.6,3.9,7.3,338.1,0.35,13.5,14.2,"08:38:00",1
"23/04/16","08:50",0.0,15.0,91.1,997.4,323.7,3.5,6.0,342.6,0.38,13.6,14.3,"08:44:08",1
"23/04/16","09:00",0.0,15.7,83.6,998.2,312.0,3.2,6.2,293.9,0.41,13.0,14.3,"08:55:28",1
"23/04/16","09:10",0.0,15.7,74.3,998.6,322.2,4.9,10.9,333.8,0.44,11.2,14.2,"09:08:56",1
"23/04/16","09:20",0.0,16.1,72.9,998.9,328.0,4.5,8.1,347.1,0.47,11.3,14.3,"09:15:52",1
"23/04/16","09:30",0.0,16.5,71.9,998.6,312.5,3.5,5.5,329.3,0.49,11.5,14.2,"09:22:24",1
"23/04/16","09:40",0.0,16.6,70.4,998.2,321.2,3.4,8.0,348.4,0.51,11.2,14.3,"09:38:08",1
"23/04/16","09:50",0.0,16.5,68.6,997.7,322.3,3.9,8.6,340.0,0.47,10.8,14.1,"09:40:32",1
"23/04/16","10:00",0.0,17.2,68.0,997.7,347.0,2.5,6.5,15.1,0.49,11.3,14.5,"09:55:20",1
"23/04/16","10:10",0.0,17.4,66.1,997.9,323.1,3.0,6.3,307.1,0.57,11.1,14.4,"10:02:24",1
"23/04/16","10:20",0.0,17.2,66.2,997.7,299.9,3.0,5.1,355.0,0.31,10.9,14.3,"10:11:28",1
"23/04/16","10:30",0.0,17.1,65.7,997.9,296.0,3.0,6.4,338.9,0.32,10.7,14.5,"10:21:04",1
"23/04/16","10:40",0.0,16.8,65.0,998.2,308.9,2.6,5.5,303.4,0.21,10.2,14.5,"10:31:44",1
"23/04/16","10:50",0.0,17.2,64.7,998.2,301.7,2.5,5.9,299.2,0.23,10.5,14.5,"10:44:32",1
"23/04/16","11:00",0.0,17.1,64.1,997.9,318.9,3.4,6.0,349.5,0.23,10.3,14.4,"10:55:04",1
"23/04/16","11:10",0.0,17.0,63.8,998.4,282.1,2.6,5.5,314.5,0.14,10.1,14.6,"11:07:36",1
"23/04/16","11:20",0.0,17.7,63.4,998.4,311.4,3.5,6.0,313.1,0.37,10.7,14.7,"11:17:44",1
"23/04/16","11:30",0.0,18.2,61.6,998.4,313.6,3.6,5.6,351.7,0.39,10.7,14.6,"11:24:16",1
"23/04/16","11:40",0.0,18.0,62.1,998.4,308.7,3.2,6.3,325.2,0.33,10.7,14.6,"11:37:20",1
"23/04/16","11:50",0.0,19.1,61.7,997.7,302.3,1.8,4.7,322.3,0.46,11.6,14.6,"11:41:36",1
"23/04/16","12:00",0.0,19.3,59.6,997.9,343.5,3.0,6.5,353.0,0.51,11.3,14.7,"11:52:24",1
"23/04/16","12:10",0.0,19.4,58.9,997.2,334.6,2.7,5.0,322.9,0.47,11.2,14.9,"12:02:16",1
"23/04/16","12:20",0.0,18.8,57.8,997.2,315.2,2.8,5.7,330.0,0.33,10.4,14.7,"12:18:00",1
"23/04/16","12:30",0.0,19.3,56.9,997.4,332.5,2.8,6.8,1.0,0.50,10.6,14.8,"12:20:16",1
"23/04/16","12:40",0.0,18.9,55.2,997.4,340.3,3.0,4.8,348.6,0.37,9.8,15.0,"12:39:28",1
"23/04/16","12:50",0.0,19.0,55.0,997.0,342.5,2.8,7.0,329.3,0.31,9.8,15.1,"12:48:40",1
"23/04/16","13:00",0.0,19.6,55.2,996.7,290.7,2.5,4.0,233.0,0.54,10.4,15.1,"12:59:28",1
"23/04/16","13:10",0.0,19.5,53.6,996.7,278.7,2.6,4.5,267.2,0.43,9.9,15.2,"13:03:20",1
"23/04/16","13:20",0.0,19.3,53.8,996.5,329.4,3.5,5.8,329.2,0.44,9.8,15.2,"13:12:48",1
"23/04/16","13:30",0.0,19.3,53.9,996.5,306.5,3.0,6.3,330.5,0.35,9.8,15.4,"13:29:44",1
"23/04/16","13:40",0.0,18.9,56.4,996.5,323.5,3.6,6.6,335.9,0.26,10.1,15.5,"13:30:08",1
"23/04/16","13:50",0.0,19.6,55.4,996.3,355.0,2.8,6.3,348.1,0.48,10.5,15.6,"13:47:36",1
"23/04/16","14:00",0.0,19.5,57.2,996.3,348.9,3.4,7.7,343.3,0.50,10.9,15.7,"13:53:04",1
"23/04/16","14:10",0.0,19.5,56.0,996.3,351.8,3.4,6.0,320.9,0.51,10.5,15.7,"14:02:56",1
"23/04/16","14:20",0.0,19.2,56.4,996.3,344.4,2.2,4.9,317.6,0.30,10.4,15.9,"14:10:08",1
"23/04/16","14:30",0.0,19.8,55.0,996.3,344.2,2.5,5.9,330.6,0.42,10.5,15.9,"14:22:16",1
"23/04/16","14:40",0.0,19.2,57.9,996.5,328.6,2.8,4.8,342.7,0.22,10.8,16.0,"14:36:16",1
"23/04/16","14:50",0.0,20.4,52.6,996.0,340.0,1.8,4.7,339.1,0.55,10.4,16.1,"14:40:48",1
"23/04/16","15:00",0.0,20.9,49.8,996.0,340.0,1.3,2.9,336.3,0.33,10.1,15.9,"14:54:08",1
"23/04/16","15:10",0.0,20.0,49.5,996.0,340.8,1.7,3.5,346.2,0.13,9.2,15.9,"15:05:12",1
"23/04/16","15:20",0.0,18.6,49.8,996.3,336.2,3.9,6.8,326.0,0.08,8.0,16.1,"15:13:12",1
"23/04/16","15:30",0.0,18.6,51.5,996.3,315.9,2.5,4.7,348.2,0.05,8.5,16.2,"15:21:04",1
"23/04/16","15:40",0.0,19.1,52.5,995.8,257.3,1.7,3.6,260.0,0.20,9.2,16.2,"15:37:12",1
"23/04/16","15:50",0.0,20.3,46.5,995.8,313.8,2.2,5.5,339.7,0.37,8.5,16.2,"15:40:02",1
"23/04/16","16:00",0.0,20.6,42.7,995.8,335.3,2.7,5.2,329.1,0.33,7.5,16.1,"15:50:16",1
"23/04/16","16:10",0.0,20.0,42.8,995.8,336.6,2.0,4.0,336.8,0.16,7.0,16.1,"16:03:12",1
"23/04/16","16:20",0.0,19.4,41.7,996.0,305.7,1.5,4.1,349.4,0.10,6.1,16.3,"16:11:36",1
"23/04/16","16:30",0.0,19.2,44.3,996.3,332.9,0.8,2.5,341.6,0.04,6.8,16.3,"16:20:16",1
"23/04/16","16:40",0.0,18.9,47.0,996.0,351.6,1.7,3.3,349.7,0.04,7.4,16.5,"16:39:52",1
"23/04/16","16:50",0.0,17.8,49.9,996.0,349.5,2.8,6.0,341.8,0.01,7.3,16.5,"16:40:16",1
"23/04/16","17:00",0.0,16.9,56.3,996.7,341.8,3.2,5.6,349.6,0.00,8.2,16.3,"16:51:44",1
"23/04/16","17:10",0.2,16.0,64.4,997.0,345.1,2.3,4.4,341.7,0.01,9.3,16.2,"17:04:08",1
"23/04/16","17:20",0.0,15.3,69.7,996.7,333.8,3.0,4.9,327.5,0.07,9.8,16.3,"17:15:12",1
"23/04/16","17:30",0.0,15.2,72.4,997.0,339.1,3.7,6.7,339.2,0.12,10.3,16.3,"17:27:36",1
"23/04/16","17:40",0.0,14.7,72.5,997.2,342.7,4.6,10.2,336.4,0.07,9.9,16.3,"17:35:46",1
"23/04/16","17:50",0.0,14.4,73.5,997.7,350.1,4.4,7.9,353.1,0.09,9.8,16.2,"17:46:58",1
"23/04/16","18:00",0.0,14.5,74.2,997.9,333.2,4.5,7.8,329.3,0.08,10.0,16.3,"17:57:24",1
"23/04/16","18:10",0.0,14.3,74.5,997.7,333.7,4.1,7.0,351.2,0.05,9.9,16.1,"18:08:00",1
"23/04/16","18:20",0.0,14.2,75.0,997.7,329.4,3.5,7.2,342.0,0.02,9.9,16.2,"18:13:10",1
"23/04/16","18:30",0.0,14.0,75.3,997.9,327.1,3.1,5.1,336.1,0.00,9.7,16.2,"18:29:16",1
"23/04/16","18:40",0.0,13.9,75.8,997.7,336.4,3.5,5.5,344.1,0.00,9.7,16.0,"18:35:58",1
"23/04/16","18:50",0.0,13.7,76.8,998.2,327.5,4.1,5.8,330.3,0.00,9.7,16.0,"18:47:56",1
"23/04/16","19:00",0.0,13.5,77.4,997.9,319.8,4.0,6.2,321.2,0.00,9.7,16.1,"18:52:56",1
"23/04/16","19:10",0.0,13.3,77.2,998.4,323.1,4.2,6.0,317.2,0.00,9.4,15.8,"19:01:20",1
"23/04/16","19:20",0.0,13.1,76.7,998.9,329.6,3.4,5.2,322.7,0.00,9.1,15.8,"19:18:26",1
"23/04/16","19:30",0.0,13.1,75.5,998.9,346.2,1.8,4.4,347.2,0.00,8.9,15.9,"19:25:20",1
"23/04/16","19:40",0.0,13.1,75.1,998.9,335.3,2.1,4.3,317.8,0.00,8.8,15.7,"19:37:38",1
"23/04/16","19:50",0.0,12.9,75.4,999.3,301.1,1.5,2.6,330.1,0.00,8.7,15.8,"19:41:46",1
"23/04/16","20:00",0.0,12.9,75.9,998.9,277.2,1.0,2.0,331.7,0.00,8.8,15.8,"19:50:08",1
"23/04/16","20:10",0.0,12.7,76.1,999.1,331.8,0.7,1.4,306.0,0.00,8.6,15.5,"20:09:04",1
"23/04/16","20:20",0.0,12.8,76.5,999.6,281.7,1.6,2.5,313.4,0.00,8.8,15.7,"20:18:42",1
"23/04/16","20:30",0.0,12.5,78.2,999.6,313.5,2.7,4.3,321.0,0.00,8.9,15.3,"20:26:54",1
"23/04/16","20:40",0.0,12.4,78.7,999.3,322.0,3.0,4.3,327.7,0.00,8.8,15.6,"20:38:24",1
"23/04/16","20:50",0.0,12.3,79.7,999.3,329.3,2.6,4.3,341.9,0.00,8.9,15.4,"20:43:18",1
"23/04/16","21:00",0.0,12.0,80.5,999.6,323.6,2.3,3.4,337.6,0.00,8.8,15.6,"20:51:04",1
"23/04/16","21:10",0.0,12.1,80.9,1000.0,322.0,2.5,3.6,339.9,0.00,9.0,15.4,"21:02:58",1
"23/04/16","21:20",0.0,12.1,81.3,1000.3,325.6,1.7,2.5,334.0,0.00,9.0,15.4,"21:17:22",1
"23/04/16","21:30",0.0,12.0,82.1,1000.3,326.7,1.7,2.2,318.2,0.00,9.1,15.4,"21:24:34",1
"23/04/16","21:40",0.0,11.8,83.8,1000.0,324.8,2.3,3.4,332.9,0.00,9.2,15.3,"21:37:32",1
"23/04/16","21:50",0.0,11.6,85.7,1000.3,309.4,3.0,4.2,315.6,0.00,9.3,15.1,"21:42:02",1
"23/04/16","22:00",0.0,11.4,86.9,1000.3,329.9,2.5,4.3,329.6,0.00,9.3,15.3,"21:52:42",1
"23/04/16","22:10",0.0,11.3,87.6,1000.0,333.7,1.7,2.5,335.3,0.00,9.4,15.2,"22:02:32",1
"23/04/16","22:20",0.0,11.3,88.2,1000.3,323.5,2.0,2.6,323.9,0.00,9.5,15.0,"22:16:30",1
"23/04/16","22:30",0.0,11.3,88.9,1000.0,317.1,2.7,3.5,312.2,0.00,9.6,15.1,"22:26:42",1
"23/04/16","22:40",0.0,11.2,89.4,1000.5,301.8,2.7,3.6,311.7,0.00,9.6,15.0,"22:38:56",1
"23/04/16","22:50",0.2,11.2,89.9,1000.5,312.5,2.7,3.7,324.8,0.00,9.6,15.2,"22:48:58",1
"23/04/16","23:00",0.0,11.1,90.3,1000.5,316.6,2.8,4.4,320.6,0.00,9.6,15.0,"22:58:16",1
"23/04/16","23:10",0.0,11.0,90.7,1000.5,326.1,2.3,3.9,322.7,0.00,9.6,15.0,"23:07:36",1
"23/04/16","23:20",0.2,11.0,91.2,1000.5,307.5,2.3,3.3,315.3,0.00,9.7,14.9,"23:10:02",1
"23/04/16","23:30",0.0,10.9,91.5,1000.5,322.7,1.7,2.6,318.4,0.00,9.6,14.8,"23:20:40",1
"23/04/16","23:40",0.0,10.8,91.9,1000.5,330.9,1.7,3.1,328.8,0.00,9.6,15.1,"23:32:40",1
"23/04/16","23:50",0.0,10.8,92.2,1001.0,324.0,2.5,3.6,333.2,0.00,9.6,15.0,"23:43:52",1
"23/04/16","24:00",0.0,11.0,92.6,1001.2,310.3,2.6,4.2,322.2,0.00,9.9,14.9,"23:56:32",1
